• In Netherlands
  • List of Countries
  • For 7 days
  • Water Temperature
  • Satellite Maps
  • Weather Map
  • Weather Widgets
  • user-avatar
    Login

    Hourly Weather Baraki Barak

    Today, 28 June, Wednesday

    Time Temperature Precipitation Wind Pressure Humidity
    00:00 +24°C° 0 mm 2 mps 598 mmHg 36%
    01:00 +23°C° 0 mm 2 mps 597 mmHg 38%
    02:00 +23°C° 0 mm 2 mps 597 mmHg 39%
    03:00 +21°C° 0 mm 2 mps 597 mmHg 40%
    04:00 +22°C° 0 mm 1 mps 597 mmHg 41%
    05:00 +20°C° 0 mm 2 mps 596 mmHg 41%
    06:00 +21°C° 0 mm 2 mps 597 mmHg 38%
    07:00 +23°C° 0 mm 2 mps 597 mmHg 36%
    08:00 +24°C° 0 mm 2 mps 598 mmHg 34%
    09:00 +25°C° 0 mm 2 mps 598 mmHg 32%
    10:00 +26°C° 0 mm 2 mps 598 mmHg 31%
    11:00 +28°C° 0 mm 1 mps 598 mmHg 27%
    12:00 +28°C° 0.1 mm 1 mps 598 mmHg 25%
    13:00 +29°C° 0.1 mm 2 mps 599 mmHg 23%
    14:00 +30°C° 0.1 mm 2 mps 599 mmHg 22%
    15:00 +30°C° 0.3 mm 2 mps 598 mmHg 23%
    16:00 +29°C° 0.3 mm 2 mps 598 mmHg 24%
    17:00 +28°C° 0 mm 3 mps 598 mmHg 27%
    18:00 +27°C° 0.2 mm 3 mps 598 mmHg 29%
    19:00 +27°C° 0.2 mm 3 mps 597 mmHg 32%
    20:00 +26°C° 0.2 mm 3 mps 597 mmHg 34%
    21:00 +25°C° 0 mm 3 mps 597 mmHg 35%
    22:00 +24°C° 0 mm 2 mps 598 mmHg 37%
    23:00 +24°C° 0 mm 2 mps 598 mmHg 38%

    Tomorrow, 29 June, Thursday

    Time Temperature Precipitation Wind Pressure Humidity
    00:00 +23°C° 0 mm 2 mps 598 mmHg 39%
    01:00 +23°C° 0 mm 2 mps 598 mmHg 39%
    02:00 +22°C° 0 mm 1 mps 598 mmHg 40%
    03:00 +22°C° 0 mm 1 mps 597 mmHg 40%
    04:00 +21°C° 0 mm 1 mps 597 mmHg 41%
    05:00 +21°C° 0 mm 1 mps 597 mmHg 41%
    06:00 +22°C° 0 mm 1 mps 597 mmHg 39%
    07:00 +22°C° 0 mm 1 mps 597 mmHg 36%
    08:00 +23°C° 0 mm 1 mps 598 mmHg 34%
    09:00 +24°C° 0 mm 1 mps 598 mmHg 32%
    10:00 +25°C° 0 mm 1 mps 598 mmHg 30%
    11:00 +26°C° 0 mm 1 mps 599 mmHg 28%
    12:00 +27°C° 0 mm 1 mps 599 mmHg 26%
    13:00 +28°C° 0 mm 1 mps 598 mmHg 23%
    14:00 +29°C° 0 mm 1 mps 598 mmHg 21%
    15:00 +30°C° 0 mm 1 mps 598 mmHg 21%
    16:00 +30°C° 0 mm 2 mps 598 mmHg 20%
    17:00 +30°C° 0 mm 2 mps 598 mmHg 20%
    18:00 +29°C° 0 mm 2 mps 597 mmHg 21%
    19:00 +28°C° 0 mm 3 mps 597 mmHg 23%
    20:00 +27°C° 0 mm 3 mps 597 mmHg 25%
    21:00 +26°C° 0 mm 3 mps 597 mmHg 27%
    22:00 +25°C° 0 mm 3 mps 597 mmHg 29%
    23:00 +24°C° 0 mm 2 mps 597 mmHg 31%

    Day after tomorrow, 30 June, Friday

    Time Temperature Precipitation Wind Pressure Humidity
    00:00 +24°C° 0.1 mm 2 mps 596 mmHg 33%
    01:00 +23°C° 0.1 mm 1 mps 596 mmHg 35%
    02:00 +22°C° 0.1 mm 1 mps 595 mmHg 37%
    03:00 +22°C° 0 mm 1 mps 595 mmHg 37%
    04:00 +21°C° 0 mm 1 mps 595 mmHg 37%
    05:00 +20°C° 0 mm 1 mps 595 mmHg 37%
    06:00 +22°C° 0 mm 1 mps 595 mmHg 31%
    07:00 +23°C° 0 mm 1 mps 596 mmHg 26%
    08:00 +24°C° 0 mm 1 mps 596 mmHg 21%
    09:00 +25°C° 0 mm 1 mps 597 mmHg 19%
    10:00 +26°C° 0 mm 1 mps 597 mmHg 16%
    11:00 +28°C° 0 mm 1 mps 597 mmHg 14%
    12:00 +29°C° 0 mm 1 mps 597 mmHg 13%
    13:00 +30°C° 0 mm 1 mps 597 mmHg 11%
    14:00 +31°C° 0 mm 1 mps 597 mmHg 9%
    15:00 +31°C° 0 mm 2 mps 597 mmHg 9%
    16:00 +31°C° 0 mm 2 mps 597 mmHg 8%
    17:00 +32°C° 0 mm 2 mps 596 mmHg 8%
    18:00 +30°C° 0 mm 3 mps 596 mmHg 10%
    19:00 +29°C° 0 mm 3 mps 596 mmHg 12%
    20:00 +28°C° 0 mm 3 mps 596 mmHg 14%
    21:00 +27°C° 0 mm 3 mps 596 mmHg 16%
    22:00 +26°C° 0 mm 2 mps 596 mmHg 18%
    23:00 +25°C° 0 mm 2 mps 596 mmHg 20%

    1 July, Saturday

    Time Temperature Precipitation Wind Pressure Humidity
    00:00 +24°C° 0 mm 2 mps 595 mmHg 22%
    01:00 +23°C° 0 mm 1 mps 595 mmHg 24%
    02:00 +23°C° 0 mm 1 mps 595 mmHg 25%
    03:00 +22°C° 0 mm 1 mps 595 mmHg 25%
    04:00 +22°C° 0 mm 1 mps 595 mmHg 24%
    05:00 +21°C° 0 mm 1 mps 595 mmHg 24%
    06:00 +22°C° 0 mm 1 mps 595 mmHg 21%
    07:00 +24°C° 0 mm 2 mps 596 mmHg 18%
    08:00 +25°C° 0 mm 2 mps 597 mmHg 15%
    09:00 +26°C° 0 mm 2 mps 597 mmHg 14%
    10:00 +27°C° 0 mm 2 mps 597 mmHg 13%
    11:00 +29°C° 0 mm 2 mps 598 mmHg 12%
    12:00 +29°C° 0 mm 2 mps 598 mmHg 11%
    13:00 +30°C° 0 mm 2 mps 598 mmHg 10%
    14:00 +31°C° 0 mm 2 mps 598 mmHg 9%
    15:00 +32°C° 0 mm 2 mps 597 mmHg 9%
    16:00 +33°C° 0 mm 3 mps 597 mmHg 8%
    17:00 +33°C° 0 mm 3 mps 597 mmHg 8%
    18:00 +30°C° 0 mm 3 mps 597 mmHg 9%
    19:00 +29°C° 0 mm 3 mps 596 mmHg 11%
    20:00 +28°C° 0 mm 3 mps 596 mmHg 13%
    21:00 +27°C° 0 mm 3 mps 596 mmHg 14%
    22:00 +26°C° 0 mm 3 mps 596 mmHg 16%
    23:00 +25°C° 0 mm 3 mps 596 mmHg 18%

    2 July, Sunday

    Time Temperature Precipitation Wind Pressure Humidity
    00:00 +24°C° 0 mm 2 mps 596 mmHg 18%
    01:00 +23°C° 0 mm 2 mps 595 mmHg 19%
    02:00 +21°C° 0 mm 2 mps 595 mmHg 19%
    03:00 +21°C° 0 mm 2 mps 595 mmHg 20%
    04:00 +20°C° 0 mm 2 mps 595 mmHg 21%
    05:00 +20°C° 0 mm 2 mps 594 mmHg 21%
    06:00 +21°C° 0 mm 2 mps 595 mmHg 20%
    07:00 +23°C° 0 mm 2 mps 596 mmHg 18%
    08:00 +24°C° 0 mm 2 mps 596 mmHg 17%
    09:00 +26°C° 0 mm 2 mps 597 mmHg 17%
    10:00 +27°C° 0 mm 2 mps 597 mmHg 16%
    11:00 +28°C° 0 mm 2 mps 598 mmHg 15%
    12:00 +29°C° 0 mm 2 mps 598 mmHg 14%
    13:00 +30°C° 0 mm 2 mps 598 mmHg 13%
    14:00 +31°C° 0 mm 1 mps 597 mmHg 12%
    15:00 +31°C° 0 mm 2 mps 597 mmHg 12%
    16:00 +32°C° 0 mm 2 mps 597 mmHg 11%
    17:00 +32°C° 0 mm 2 mps 597 mmHg 11%
    18:00 +31°C° 0 mm 3 mps 597 mmHg 13%
    19:00 +29°C° 0 mm 3 mps 596 mmHg 15%
    20:00 +28°C° 0 mm 4 mps 596 mmHg 17%
    21:00 +27°C° 0 mm 4 mps 596 mmHg 19%
    22:00 +26°C° 0 mm 3 mps 596 mmHg 22%
    23:00 +25°C° 0 mm 3 mps 596 mmHg 24%

    3 July, Monday

    Time Temperature Precipitation Wind Pressure Humidity
    00:00 +25°C° 0 mm 3 mps 596 mmHg 25%
    01:00 +24°C° 0 mm 2 mps 596 mmHg 26%
    02:00 +23°C° 0 mm 2 mps 595 mmHg 27%
    03:00 +23°C° 0 mm 2 mps 595 mmHg 27%
    04:00 +21°C° 0 mm 2 mps 595 mmHg 28%
    05:00 +21°C° 0 mm 2 mps 595 mmHg 28%
    06:00 +23°C° 0 mm 2 mps 596 mmHg 26%
    07:00 +24°C° 0 mm 2 mps 596 mmHg 24%
    08:00 +25°C° 0 mm 2 mps 597 mmHg 21%
    09:00 +26°C° 0 mm 2 mps 597 mmHg 20%
    10:00 +27°C° 0 mm 2 mps 597 mmHg 19%
    11:00 +28°C° 0 mm 1 mps 598 mmHg 18%
    12:00 +29°C° 0 mm 1 mps 597 mmHg 17%
    13:00 +30°C° 0 mm 1 mps 597 mmHg 15%
    14:00 +31°C° 0 mm 1 mps 597 mmHg 13%
    15:00 +32°C° 0 mm 2 mps 597 mmHg 13%
    16:00 +32°C° 0 mm 2 mps 597 mmHg 12%
    17:00 +32°C° 0 mm 2 mps 597 mmHg 12%
    18:00 +31°C° 0 mm 3 mps 597 mmHg 13%
    19:00 +30°C° 0 mm 3 mps 596 mmHg 15%
    20:00 +29°C° 0 mm 3 mps 596 mmHg 16%
    21:00 +28°C° 0 mm 3 mps 596 mmHg 18%
    22:00 +27°C° 0 mm 3 mps 596 mmHg 20%
    23:00 +26°C° 0 mm 3 mps 596 mmHg 22%
    Show more